timestamp,surface_pressure_avg,surface_temp_avg,battery_voltage,lat,long
2020-04-01 00:09:01+00:00,252.4164,0.63,12.81,47.84626,-54.09684
2020-04-01 00:19:01+00:00,251.6813,0.7,12.73,47.84626,-54.09684
2020-04-01 00:29:01+00:00,252.8615,0.7,12.73,47.84626,-54.09684
2020-04-01 00:39:01+00:00,258.3848,0.66,12.73,47.84626,-54.09684
2020-04-01 00:49:01+00:00,261.9215,0.66,12.73,47.84626,-54.09684
2020-04-01 00:59:01+00:00,261.1214,0.7,12.73,47.84626,-54.09684
2020-04-01 01:09:01+00:00,262.6481,0.79,12.73,47.84626,-54.09684
2020-04-01 01:19:01+00:00,263.6231,0.8,12.65,47.84626,-54.09684
2020-04-01 01:29:01+00:00,264.0465,0.8,12.65,47.84626,-54.09684
2020-04-01 01:39:01+00:00,266.4864,0.79,12.65,47.84626,-54.09684
2020-04-01 01:49:01+00:00,271.0331,0.79,12.65,47.84626,-54.09684
2020-04-01 01:59:01+00:00,273.3914,0.84,12.65,47.84626,-54.09684
2020-04-01 02:09:01+00:00,279.1431,0.83,12.65,47.84626,-54.09684
2020-04-01 02:19:01+00:00,285.5431,0.79,12.65,47.84626,-54.09684
2020-04-01 02:29:01+00:00,289.3664,0.81,12.65,47.84626,-54.09684
2020-04-01 02:39:01+00:00,290.3947,0.88,12.65,47.84626,-54.09684
2020-04-01 02:49:01+00:00,297.9864,0.9,12.65,47.84626,-54.09684
2020-04-01 02:59:01+00:00,304.8747,1.11,12.65,47.84626,-54.09684
2020-04-01 03:09:01+00:00,305.013,1.19,12.65,47.84626,-54.09684
2020-04-01 03:19:01+00:00,305.7646,0.98,12.65,47.84626,-54.09684
2020-04-01 03:29:01+00:00,315.8746,0.98,12.65,47.84626,-54.09684
2020-04-01 03:39:01+00:00,321.6162,1.0,12.65,47.84626,-54.09684
2020-04-01 03:49:01+00:00,321.1512,1.0,12.65,47.84626,-54.09684
2020-04-01 03:59:01+00:00,324.113,1.0,12.65,47.84626,-54.09684
2020-04-01 04:09:01+00:00,331.3429,0.97,12.65,47.84626,-54.09684
2020-04-01 04:19:01+00:00,331.2963,1.09,12.65,47.84626,-54.09684
2020-04-01 04:29:01+00:00,327.5413,1.2,12.65,47.84626,-54.09684
2020-04-01 04:39:01+00:00,328.2845,1.2,12.65,47.84626,-54.09684
2020-04-01 04:49:01+00:00,331.1596,1.23,12.65,47.84626,-54.09684
2020-04-01 04:59:01+00:00,328.55800000000005,1.28,12.65,47.84626,-54.09684
2020-04-01 05:09:01+00:00,326.1279,1.2,12.65,47.84626,-54.09684
2020-04-01 05:19:01+00:00,325.8096,1.1,12.65,47.84626,-54.09684
2020-04-01 05:29:01+00:00,324.9514,1.03,12.65,47.84626,-54.09684
2020-04-01 05:39:01+00:00,321.348,1.0,12.65,47.84626,-54.09684
2020-04-01 05:49:01+00:00,321.1764,1.0,12.65,47.84626,-54.09684
2020-04-01 05:59:01+00:00,319.0064,1.0,12.65,47.84626,-54.09684
2020-04-01 06:09:01+00:00,317.1263,1.0,12.65,47.84626,-54.09684
2020-04-01 06:19:01+00:00,315.693,0.9,12.57,47.84626,-54.09684
2020-04-01 06:29:01+00:00,313.7463,0.8,12.57,47.84626,-54.09684
2020-04-01 06:39:01+00:00,309.733,0.9,12.57,47.84626,-54.09684
2020-04-01 06:49:01+00:00,308.6696,0.93,12.57,47.84626,-54.09684
2020-04-01 06:59:01+00:00,306.353,1.07,12.57,47.84626,-54.09684
2020-04-01 07:09:01+00:00,300.1946,0.9,12.57,47.84626,-54.09684
2020-04-01 07:19:01+00:00,292.838,1.0,12.57,47.84626,-54.09684
2020-04-01 07:29:01+00:00,290.678,1.28,12.57,47.84626,-54.09684
2020-04-01 07:39:01+00:00,285.5647,1.3,12.57,47.84626,-54.09684
2020-04-01 07:49:01+00:00,277.2814,1.3,12.57,47.84626,-54.09684
2020-04-01 07:59:01+00:00,269.7897,1.4,12.57,47.84626,-54.09684
2020-04-01 08:09:01+00:00,265.4998,1.1,12.57,47.84626,-54.09684
2020-04-01 08:19:01+00:00,259.7164,1.03,12.57,47.84626,-54.09684
2020-04-01 08:29:01+00:00,252.1398,1.18,12.57,47.84626,-54.09684
2020-04-01 08:39:01+00:00,247.7831,1.04,12.57,47.84626,-54.09684
2020-04-01 08:49:01+00:00,242.1115,0.95,12.57,47.84626,-54.09684
2020-04-01 08:59:01+00:00,234.9048,0.9,12.57,47.84626,-54.09684
2020-04-01 09:09:01+00:00,229.9531,0.6,12.57,47.84626,-54.09684
2020-04-01 09:19:01+00:00,228.4598,0.59,12.57,47.84626,-54.09684
2020-04-01 09:29:01+00:00,226.5014,0.6,12.57,47.84626,-54.09684
2020-04-01 09:39:01+00:00,222.2347,0.6,12.57,47.84626,-54.09684
2020-04-01 09:49:01+00:00,219.8965,0.6,12.57,47.84626,-54.09684
2020-04-01 09:59:01+00:00,219.0548,0.59,12.57,47.84626,-54.09684
2020-04-01 10:09:01+00:00,216.4064,0.58,12.57,47.84626,-54.09684
2020-04-01 10:19:01+00:00,213.3731,0.59,12.57,47.84626,-54.09684
2020-04-01 10:29:01+00:00,215.7014,0.6,12.57,47.84626,-54.09684
2020-04-01 10:39:01+00:00,217.7398,0.75,12.57,47.84626,-54.09684
2020-04-01 10:49:01+00:00,216.4282,1.1,12.57,47.84626,-54.09684
2020-04-01 10:59:01+00:00,215.7415,1.22,12.57,47.84626,-54.09684
2020-04-01 11:09:01+00:00,218.2031,1.3,12.57,47.84626,-54.09684
2020-04-01 11:19:01+00:00,218.2164,1.34,12.97,47.84626,-54.09684
2020-04-01 11:29:01+00:00,217.1631,1.36,12.97,47.84626,-54.09684
2020-04-01 11:39:01+00:00,220.1981,1.3,12.97,47.84626,-54.09684
2020-04-01 11:49:01+00:00,224.578,1.1,12.97,47.84626,-54.09684
2020-04-01 11:59:01+00:00,225.6348,0.9,12.97,47.84626,-54.09684
2020-04-01 12:09:01+00:00,226.1798,0.81,12.97,47.84626,-54.09684
2020-04-01 12:19:01+00:00,228.8831,0.8,13.44,47.84626,-54.09684
2020-04-01 12:29:01+00:00,230.8598,0.8,13.44,47.84626,-54.09684
2020-04-01 12:39:01+00:00,232.6498,0.84,13.44,47.84626,-54.09684
2020-04-01 12:49:01+00:00,234.8031,0.9,13.44,47.84626,-54.09684
2020-04-01 12:59:01+00:00,237.6631,0.9,13.44,47.84626,-54.09684
2020-04-01 13:09:01+00:00,239.1597,0.9,13.44,47.84626,-54.09684
2020-04-01 13:19:01+00:00,241.1014,0.9,13.68,47.84626,-54.09684
2020-04-01 13:29:01+00:00,243.1681,0.8,13.68,47.84626,-54.09684
2020-04-01 13:39:01+00:00,244.7231,0.8,13.68,47.84626,-54.09684
2020-04-01 13:49:01+00:00,245.8882,0.7,13.68,47.84626,-54.09684
2020-04-01 13:59:01+00:00,246.1764,0.68,13.68,47.84626,-54.09684
2020-04-01 14:09:01+00:00,248.4532,0.6,13.68,47.84626,-54.09684
2020-04-01 14:19:01+00:00,251.648,0.6,13.68,47.84626,-54.09684
2020-04-01 14:29:01+00:00,257.0364,0.6,13.68,47.84626,-54.09684
2020-04-01 14:39:01+00:00,260.0964,0.6,13.68,47.84626,-54.09684
2020-04-01 14:49:01+00:00,260.6247,0.6,13.68,47.84626,-54.09684
2020-04-01 14:59:01+00:00,261.2365,0.6,13.68,47.84626,-54.09684
2020-04-01 15:09:01+00:00,264.988,0.6,13.68,47.84626,-54.09684
2020-04-01 15:19:01+00:00,269.6964,0.6,14.0,47.84626,-54.09684
2020-04-01 15:29:01+00:00,273.7646,0.6,14.0,47.84626,-54.09684
2020-04-01 15:39:01+00:00,277.0447,0.6,14.0,47.84626,-54.09684
2020-04-01 15:49:01+00:00,281.0381,0.6,14.0,47.84626,-54.09684
2020-04-01 15:59:01+00:00,282.9097,0.6,14.0,47.84626,-54.09684
2020-04-01 16:09:01+00:00,284.308,0.6,14.0,47.84626,-54.09684
2020-04-01 16:19:01+00:00,285.9065,0.6,14.16,47.84626,-54.09684
2020-04-01 16:29:01+00:00,288.6413,0.6,14.16,47.84626,-54.09684
2020-04-01 16:39:01+00:00,290.8247,0.6,14.16,47.84626,-54.09684
2020-04-01 16:49:01+00:00,290.1929,0.6,14.16,47.84626,-54.09684
2020-04-01 16:59:01+00:00,291.9263,0.6,14.16,47.84626,-54.09684
2020-04-01 17:09:01+00:00,295.138,1.19,14.16,47.84626,-54.09684
2020-04-01 17:19:01+00:00,294.6946,0.7,14.24,47.84626,-54.09684
2020-04-01 17:29:01+00:00,292.3097,0.7,14.24,47.84626,-54.09684
2020-04-01 17:39:01+00:00,292.7597,0.76,14.24,47.84626,-54.09684
2020-04-01 17:49:01+00:00,294.8464,0.8,14.24,47.84626,-54.09684
2020-04-01 17:59:01+00:00,292.7047,0.85,14.24,47.84626,-54.09684
2020-04-01 18:09:01+00:00,287.2598,1.11,14.24,47.84626,-54.09684
2020-04-01 18:19:01+00:00,285.968,1.33,14.32,47.84626,-54.09684
2020-04-01 18:29:01+00:00,288.8114,1.39,14.32,47.84626,-54.09684
2020-04-01 18:39:01+00:00,286.3231,1.68,14.32,47.84626,-54.09684
2020-04-01 18:49:01+00:00,283.5298,1.68,14.32,47.84626,-54.09684
2020-04-01 18:59:01+00:00,283.0747,1.5,14.32,47.84626,-54.09684
2020-04-01 19:09:01+00:00,277.9197,1.5,14.32,47.84626,-54.09684
2020-04-01 19:19:01+00:00,269.0864,1.5,14.24,47.84626,-54.09684
2020-04-01 19:29:01+00:00,271.9497,1.4,14.24,47.84626,-54.09684
2020-04-01 19:39:01+00:00,276.3597,1.57,14.24,47.84626,-54.09684
2020-04-01 19:49:01+00:00,271.5648,1.4,14.24,47.84626,-54.09684
2020-04-01 19:59:01+00:00,264.5914,1.25,14.24,47.84626,-54.09684
2020-04-01 20:09:01+00:00,261.2147,1.23,14.24,47.84626,-54.09684
2020-04-01 20:19:01+00:00,258.6814,1.25,14.0,47.84626,-54.09684
2020-04-01 20:29:01+00:00,253.4564,1.26,14.0,47.84626,-54.09684
2020-04-01 20:39:01+00:00,244.5098,1.28,14.0,47.84626,-54.09684
2020-04-01 20:49:01+00:00,233.2114,1.27,14.0,47.84626,-54.09684
2020-04-01 20:59:01+00:00,226.8898,1.27,14.0,47.84626,-54.09684
2020-04-01 21:09:01+00:00,225.0164,1.35,14.0,47.84626,-54.09684
2020-04-01 21:19:01+00:00,222.4948,1.77,13.68,47.84626,-54.09684
2020-04-01 21:29:01+00:00,223.0148,1.89,13.68,47.84626,-54.09684
2020-04-01 21:39:01+00:00,217.4181,1.9,13.68,47.84626,-54.09684
2020-04-01 21:49:01+00:00,211.2581,1.91,13.68,47.84626,-54.09684
2020-04-01 21:59:01+00:00,212.3998,1.99,13.68,47.84626,-54.09684
2020-04-01 22:09:01+00:00,212.4981,2.0,13.68,47.84626,-54.09684
2020-04-01 22:19:01+00:00,207.7981,2.1,13.21,47.84626,-54.09684
2020-04-01 22:29:01+00:00,207.9265,2.0,13.21,47.84626,-54.09684
2020-04-01 22:39:01+00:00,208.5031,2.11,13.21,47.84626,-54.09684
2020-04-01 22:49:01+00:00,204.4098,2.1,13.21,47.84626,-54.09684
2020-04-01 22:59:01+00:00,210.1998,2.0,13.21,47.84626,-54.09684
2020-04-01 23:09:01+00:00,217.4265,1.99,13.21,47.84626,-54.09684
2020-04-01 23:19:01+00:00,217.7081,1.92,12.89,47.84626,-54.09684
2020-04-01 23:29:01+00:00,216.5414,2.0,12.89,47.84626,-54.09684
2020-04-01 23:39:01+00:00,222.7148,1.8,12.89,47.84626,-54.09684
2020-04-01 23:49:01+00:00,229.2014,1.16,12.89,47.84626,-54.09684
2020-04-01 23:59:01+00:00,230.0547,1.01,12.89,47.84626,-54.09684
